Horseshoe Bay, TX

2:07 PM MDT on September 25, 2017 (GMT -0600)
Horseshoe Bay

Weather History for KDZB - March, 2013

Change the Weather History Date:

Friday, March 15, 2013

  Actual Average (KBMQ) Record (KBMQ)
Temperature  
Mean Temperature 66 °F -  
Max Temperature 78 °F 65 °F 87 °F (2016)
Min Temperature 53 °F 46 °F 34 °F (1999)
Growing Degree Days 16 (Base 50)    
Moisture  
Dew Point 46 °F    
Average Humidity 53    
Maximum Humidity 88    
Minimum Humidity 29    
Precipitation  
Precipitation 0.00 in - - ()
Sea Level Pressure  
Sea Level Pressure 30.09 in    
Wind  
Wind Speed 7 mph (South)    
Max Wind Speed 17 mph    
Max Gust Speed 24 mph    
Visibility 10 miles    
Events      
Averages and records for this station are not official NWS values.
T = Trace of Precipitation, MM = Missing Value Source: NWS Daily Summary

Daily Weather History Graph

Daily Weather History Graph

Search for Another Location

Airport or City:

Trip Planner

Search our weather history database for the weather conditions in past years. The results will help you decide how hot, cold, wet, or windy it might be!

Date:

Astronomy

Mar. 15, 2013 Rise Set
Actual Time 6:43 AM MDT 6:41 PM MDT
Civil Twilight 6:19 AM MDT 7:05 PM MDT
Nautical Twilight 5:51 AM MDT 7:33 PM MDT
Astronomical Twilight 5:23 AM MDT 8:01 PM MDT
Moon 8:52 AM MDT (3/15) 10:37 PM MDT (3/15)
Length of Visible Light 12h 46m
Length of Day
11h 58m
Waxing Crescent, 16% of the Moon is Illuminated
Mar 15
Waxing Crescent
Mar 19
First Quarter
Mar 27
Full
Apr 2
Last Quarter
Apr 10
New

Hourly Weather History & Observations

Time (MDT) Temp. Dew Point Humidity Pressure Visibility Wind Dir Wind Speed Gust Speed Precip Events Conditions
12:15 AM 59.0 °F 50.0 °F 72% 30.21 in 10.0 mi South 11.5 mph - N/A   Clear
12:35 AM 59.0 °F 50.0 °F 72% 30.20 in 10.0 mi South 11.5 mph 20.7 mph N/A   Clear
12:55 AM 59.0 °F 50.0 °F 72% 30.20 in 10.0 mi South 9.2 mph 16.1 mph N/A   Clear
1:15 AM 57.2 °F 50.0 °F 77% 30.21 in 10.0 mi SSW 4.6 mph - N/A   Clear
1:35 AM 57.2 °F 50.0 °F 77% 30.20 in 10.0 mi South 3.5 mph - N/A   Clear
1:55 AM 57.2 °F 50.0 °F 77% 30.21 in 10.0 mi Calm Calm - N/A   Clear
2:15 AM 55.4 °F 50.0 °F 82% 30.20 in 10.0 mi South 5.8 mph - N/A   Clear
2:35 AM 55.4 °F 50.0 °F 82% 30.19 in 10.0 mi South 5.8 mph - N/A   Clear
2:55 AM 55.4 °F 50.0 °F 82% 30.19 in 10.0 mi South 5.8 mph - N/A   Clear
3:15 AM 55.4 °F 50.0 °F 82% 30.18 in 10.0 mi SSW 3.5 mph - N/A   Clear
3:35 AM 55.4 °F 50.0 °F 82% 30.18 in 10.0 mi South 3.5 mph - N/A   Clear
3:55 AM 55.4 °F 50.0 °F 82% 30.17 in 10.0 mi SSW 4.6 mph - N/A   Clear
4:15 AM 55.4 °F 50.0 °F 82% 30.17 in 10.0 mi SSW 3.5 mph - N/A   Clear
4:35 AM 55.4 °F 50.0 °F 82% 30.16 in 10.0 mi SSW 4.6 mph - N/A   Clear
4:55 AM 55.4 °F 50.0 °F 82% 30.17 in 10.0 mi SSW 3.5 mph - N/A   Clear
5:15 AM 55.4 °F 50.0 °F 82% 30.17 in 10.0 mi SW 3.5 mph - N/A   Scattered Clouds
5:35 AM 55.4 °F 50.0 °F 82% 30.17 in 10.0 mi SW 3.5 mph - N/A   Scattered Clouds
5:55 AM 55.4 °F 50.0 °F 82% 30.17 in 10.0 mi SSW 3.5 mph - N/A   Clear
6:15 AM 53.6 °F 50.0 °F 88% 30.17 in 10.0 mi Calm Calm - N/A   Clear
6:35 AM 55.4 °F 50.0 °F 82% 30.17 in 10.0 mi SSW 4.6 mph - N/A   Clear
6:55 AM 55.4 °F 50.0 °F 82% 30.17 in 10.0 mi South 4.6 mph - N/A   Clear
7:15 AM 55.4 °F 50.0 °F 82% 30.17 in 10.0 mi SSW 4.6 mph - N/A   Clear
7:35 AM 55.4 °F 50.0 °F 82% 30.18 in 10.0 mi Calm Calm - N/A   Clear
7:55 AM 57.2 °F 50.0 °F 77% 30.18 in 10.0 mi SW 4.6 mph - N/A   Clear
8:15 AM 59.0 °F 51.8 °F 77% 30.18 in 10.0 mi WSW 4.6 mph - N/A   Clear
8:35 AM 60.8 °F 51.8 °F 72% 30.18 in 10.0 mi SW 6.9 mph - N/A   Clear
8:55 AM 62.6 °F 51.8 °F 68% 30.19 in 10.0 mi SSW 5.8 mph - N/A   Clear
9:55 AM 68.0 °F 50.0 °F 52% 30.18 in 10.0 mi SSW 4.6 mph - N/A   Clear
10:15 AM 68.0 °F 50.0 °F 52% 30.18 in 10.0 mi SSW 5.8 mph - N/A   Clear
10:35 AM 69.8 °F 48.2 °F 46% 30.18 in 10.0 mi SW 8.1 mph - N/A   Clear
10:55 AM 69.8 °F 44.6 °F 40% 30.17 in 10.0 mi SSW 9.2 mph 17.3 mph N/A   Clear
11:15 AM 71.6 °F 42.8 °F 35% 30.16 in 10.0 mi SSW 8.1 mph - N/A   Clear
11:35 AM 73.4 °F 44.6 °F 36% 30.15 in 10.0 mi South 10.4 mph 17.3 mph N/A   Clear
11:55 AM 73.4 °F 42.8 °F 33% 30.14 in 10.0 mi South 15.0 mph 21.9 mph N/A   Clear
12:15 PM 73.4 °F 42.8 °F 33% 30.13 in 10.0 mi South 10.4 mph 20.7 mph N/A   Clear
12:35 PM 75.2 °F 42.8 °F 31% 30.12 in 10.0 mi South 15.0 mph 21.9 mph N/A   Clear
12:55 PM 75.2 °F 42.8 °F 31% 30.10 in 10.0 mi South 17.3 mph 24.2 mph N/A   Clear
1:15 PM 77.0 °F 44.6 °F 32% 30.09 in 10.0 mi South 13.8 mph 21.9 mph N/A   Clear
1:35 PM 77.0 °F 44.6 °F 32% 30.07 in 10.0 mi SSW 12.7 mph 19.6 mph N/A   Clear
1:55 PM 78.8 °F 44.6 °F 30% 30.06 in 10.0 mi South 9.2 mph 16.1 mph N/A   Clear
2:15 PM 78.8 °F 44.6 °F 30% 30.04 in 10.0 mi South 11.5 mph 17.3 mph N/A   Clear
2:35 PM 78.8 °F 44.6 °F 30% 30.03 in 10.0 mi SSW 9.2 mph 19.6 mph N/A   Clear
2:55 PM 78.8 °F 44.6 °F 30% 30.02 in 10.0 mi SSW 11.5 mph 19.6 mph N/A   Clear
3:15 PM 78.8 °F 44.6 °F 30% 30.02 in 10.0 mi SSW 11.5 mph 18.4 mph N/A   Clear
3:35 PM 78.8 °F 46.4 °F 32% 30.01 in 10.0 mi South 12.7 mph 21.9 mph N/A   Clear
3:55 PM 78.8 °F 46.4 °F 32% 30.00 in 10.0 mi South 10.4 mph 23.0 mph N/A   Clear
4:15 PM 78.8 °F 46.4 °F 32% 30.00 in 10.0 mi South 15.0 mph 19.6 mph N/A   Clear
4:35 PM 78.8 °F 44.6 °F 30% 30.00 in 10.0 mi South 10.4 mph 21.9 mph N/A   Clear
4:55 PM 78.8 °F 44.6 °F 30% 29.99 in 10.0 mi South 12.7 mph 21.9 mph N/A   Clear
5:15 PM 77.0 °F 44.6 °F 32% 29.99 in 10.0 mi South 11.5 mph 17.3 mph N/A   Clear
5:35 PM 77.0 °F 42.8 °F 29% 29.99 in 10.0 mi South 8.1 mph 16.1 mph N/A   Clear
5:55 PM 77.0 °F 42.8 °F 29% 29.98 in 10.0 mi South 6.9 mph 19.6 mph N/A   Clear
6:15 PM 75.2 °F 42.8 °F 31% 29.98 in 10.0 mi South 11.5 mph 16.1 mph N/A   Clear
6:35 PM 73.4 °F 41.0 °F 31% 29.98 in 10.0 mi South 6.9 mph - N/A   Clear
6:55 PM 71.6 °F 41.0 °F 33% 29.99 in 10.0 mi South 5.8 mph - N/A   Clear
7:15 PM 69.8 °F 41.0 °F 35% 29.99 in 10.0 mi South 4.6 mph - N/A   Clear
7:35 PM 68.0 °F 39.2 °F 35% 29.98 in 10.0 mi South 5.8 mph - N/A   Clear
7:55 PM 68.0 °F 39.2 °F 35% 29.98 in 10.0 mi SSE 4.6 mph - N/A   Clear
8:15 PM 66.2 °F 37.4 °F 35% 29.98 in 10.0 mi SSE 3.5 mph - N/A   Clear
8:35 PM 64.4 °F 37.4 °F 37% 29.98 in 10.0 mi Calm Calm - N/A   Clear
8:55 PM 62.6 °F 37.4 °F 39% 29.98 in 10.0 mi SSE 3.5 mph - N/A   Clear
9:15 PM 62.6 °F 37.4 °F 39% 29.99 in 10.0 mi SSE 6.9 mph - N/A   Clear
9:35 PM 64.4 °F 41.0 °F 42% 29.99 in 10.0 mi South 8.1 mph - N/A   Clear
9:55 PM 64.4 °F 42.8 °F 45% 29.99 in 10.0 mi South 8.1 mph 16.1 mph N/A   Clear
10:15 PM 64.4 °F 42.8 °F 45% 29.99 in 10.0 mi SSE 8.1 mph 17.3 mph N/A   Clear
10:35 PM 64.4 °F 44.6 °F 49% 29.99 in 10.0 mi South 10.4 mph 16.1 mph N/A   Clear
10:55 PM 62.6 °F 46.4 °F 55% 29.98 in 10.0 mi South 11.5 mph 18.4 mph N/A   Clear
11:15 PM 62.6 °F 46.4 °F 55% 29.98 in 10.0 mi South 10.4 mph 18.4 mph N/A   Clear
11:35 PM 62.6 °F 46.4 °F 55% 29.97 in 10.0 mi South 11.5 mph 18.4 mph N/A   Clear
11:55 PM 62.6 °F 46.4 °F 55% 29.96 in 10.0 mi South 9.2 mph 21.9 mph N/A   Clear